Weather History for KMKT - July, 2013

Change the Weather History Date:

Monday, July 22, 2013

  Actual Average Record
Temperature  
Mean Temperature 75 °F -  
Max Temperature 84 °F 78 °F 89 °F (1999)
Min Temperature 64 °F 61 °F 53 °F (2000)
Cooling Degree Days 10    
Growing Degree Days 25 (Base 50)    
Moisture  
Dew Point 63 °F    
Average Humidity 71    
Maximum Humidity 88    
Minimum Humidity 50    
Precipitation  
Precipitation 0.00 in - - ()
Sea Level Pressure  
Sea Level Pressure 29.77 in    
Wind  
Wind Speed 11 mph (WSW)    
Max Wind Speed 21 mph    
Max Gust Speed 28 mph    
Visibility 10 miles    
Events      
Averages and records for this station are not official NWS values.
T = Trace of Precipitation, MM = Missing Value Source: NWS Daily Summary

Daily Weather History Graph

Daily Weather History Graph

Search for Another Location

Airport or City:

Trip Planner

Search our weather history database for the weather conditions in past years. The results will help you decide how hot, cold, wet, or windy it might be!

Date:

Astronomy

Jul. 22, 2013 Rise Set
Actual Time 5:52 AM CDT 8:50 PM CDT
Civil Twilight 5:18 AM CDT 9:24 PM CDT
Nautical Twilight 4:34 AM CDT 10:08 PM CDT
Astronomical Twilight 3:42 AM CDT 11:00 PM CDT
Moon 8:33 PM CDT (7/22) 5:52 AM CDT (7/22)
Length of Visible Light 16h 06m
Length of Day
14h 57m
Full, 100% of the Moon is Illuminated
Jul 22
Full
Jul 22
Full
Jul 29
Last Quarter
Aug 6
New
Aug 14
First Quarter

Hourly Weather History & Observations

Time (CDT) Temp. Heat Index Dew Point Humidity Pressure Visibility Wind Dir Wind Speed Gust Speed Precip Events Conditions
12:15 AM 69.8 °F - 64.4 °F 83% 29.82 in 10.0 mi SSE 10.4 mph - N/A   Clear
12:35 AM 69.8 °F - 62.6 °F 78% 29.81 in 10.0 mi SSE 11.5 mph 17.3 mph N/A   Clear
12:55 AM 69.8 °F - 62.6 °F 78% 29.81 in 10.0 mi SSE 12.7 mph - N/A   Clear
1:15 AM 69.8 °F - 62.6 °F 78% 29.80 in 10.0 mi SSE 10.4 mph 16.1 mph N/A   Clear
1:35 AM 69.8 °F - 62.6 °F 78% 29.79 in 10.0 mi South 10.4 mph - N/A   Clear
1:55 AM 69.8 °F - 62.6 °F 78% 29.80 in 10.0 mi South 9.2 mph - N/A   Clear
2:15 AM 68.0 °F - 62.6 °F 83% 29.80 in 10.0 mi South 8.1 mph - N/A   Clear
2:35 AM 68.0 °F - 62.6 °F 83% 29.80 in 10.0 mi South 8.1 mph - N/A   Clear
2:55 AM 66.2 °F - 62.6 °F 88% 29.78 in 10.0 mi South 10.4 mph - N/A   Clear
3:15 AM 66.2 °F - 62.6 °F 88% 29.79 in 10.0 mi South 9.2 mph - N/A   Clear
3:35 AM 66.2 °F - 62.6 °F 88% 29.78 in 10.0 mi South 8.1 mph - N/A   Clear
3:55 AM 66.2 °F - 62.6 °F 88% 29.77 in 10.0 mi South 6.9 mph - N/A   Clear
4:15 AM 66.2 °F - 62.6 °F 88% 29.77 in 8.0 mi South 8.1 mph - N/A   Clear
4:35 AM 66.2 °F - 62.6 °F 88% 29.77 in 7.0 mi South 5.8 mph - N/A   Clear
4:55 AM 66.2 °F - 62.6 °F 88% 29.77 in 8.0 mi South 4.6 mph - N/A   Clear
5:15 AM 66.2 °F - 62.6 °F 88% 29.77 in 8.0 mi South 5.8 mph - N/A   Clear
5:35 AM 66.2 °F - 62.6 °F 88% 29.76 in 7.0 mi South 9.2 mph - N/A   Clear
5:55 AM 66.2 °F - 62.6 °F 88% 29.75 in 5.0 mi SSE 10.4 mph - N/A   Clear
6:15 AM 66.2 °F - 62.6 °F 88% 29.76 in 7.0 mi SSE 9.2 mph - N/A   Clear
6:35 AM 66.2 °F - 62.6 °F 88% 29.77 in 6.0 mi South 6.9 mph - N/A   Clear
6:55 AM 66.2 °F - 62.6 °F 88% 29.77 in 6.0 mi SSE 8.1 mph - N/A   Clear
7:15 AM 66.2 °F - 62.6 °F 88% 29.74 in 7.0 mi South 10.4 mph 16.1 mph N/A   Clear
7:35 AM 68.0 °F - 64.4 °F 88% 29.75 in 7.0 mi South 10.4 mph - N/A   Partly Cloudy
7:55 AM 69.8 °F - 64.4 °F 83% 29.77 in 8.0 mi South 3.5 mph - N/A   Mostly Cloudy
8:15 AM 69.8 °F - 64.4 °F 83% 29.76 in 9.0 mi South 8.1 mph - N/A   Mostly Cloudy
8:35 AM 69.8 °F - 66.2 °F 88% 29.75 in 10.0 mi SSE 9.2 mph - N/A   Partly Cloudy
8:55 AM 71.6 °F - 66.2 °F 83% 29.74 in 10.0 mi South 12.7 mph - N/A   Clear
9:15 AM 71.6 °F - 66.2 °F 83% 29.75 in 10.0 mi SSW 10.4 mph - N/A   Clear
9:35 AM 73.4 °F - 66.2 °F 78% 29.75 in 10.0 mi South 11.5 mph - N/A   Clear
9:55 AM 73.4 °F - 66.2 °F 78% 29.74 in 10.0 mi South 10.4 mph 16.1 mph N/A   Clear
10:15 AM 75.2 °F - 68.0 °F 78% 29.72 in 10.0 mi South 9.2 mph - N/A   Clear
10:35 AM 75.2 °F - 68.0 °F 78% 29.72 in 10.0 mi South 10.4 mph - N/A   Clear
10:55 AM 75.2 °F - 69.8 °F 83% 29.72 in 10.0 mi South 12.7 mph - N/A   Clear
11:15 AM 77.0 °F - 69.8 °F 78% 29.72 in 10.0 mi South 6.9 mph - N/A   Clear
11:35 AM 78.8 °F - 69.8 °F 74% 29.73 in 10.0 mi SSW 9.2 mph - N/A   Clear
11:55 AM 78.8 °F - 69.8 °F 74% 29.73 in 10.0 mi SW 9.2 mph - N/A   Clear
12:15 PM 80.6 °F 83.9 °F 69.8 °F 70% 29.73 in 10.0 mi SW 9.2 mph - N/A   Clear
12:35 PM 80.6 °F 83.2 °F 68.0 °F 65% 29.73 in 10.0 mi West 8.1 mph - N/A   Partly Cloudy
12:55 PM 82.4 °F 86.3 °F 69.8 °F 66% 29.73 in 10.0 mi West 12.7 mph 16.1 mph N/A   Scattered Clouds
1:15 PM 82.4 °F 86.3 °F 69.8 °F 66% 29.73 in 10.0 mi West 12.7 mph - N/A   Scattered Clouds
1:35 PM 82.4 °F 85.4 °F 68.0 °F 62% 29.73 in 10.0 mi NW 9.2 mph - N/A   Mostly Cloudy
1:55 PM 84.2 °F 88.4 °F 69.8 °F 62% 29.72 in 10.0 mi WNW 11.5 mph - N/A   Scattered Clouds
2:15 PM 82.4 °F 85.4 °F 68.0 °F 62% 29.72 in 10.0 mi NW 13.8 mph - N/A   Mostly Cloudy
2:35 PM 82.4 °F 85.4 °F 68.0 °F 62% 29.72 in 10.0 mi WNW 12.7 mph - N/A   Overcast
2:55 PM 84.2 °F 87.3 °F 68.0 °F 58% 29.73 in 10.0 mi WNW 13.8 mph 19.6 mph N/A   Mostly Cloudy
3:15 PM 84.2 °F 87.3 °F 68.0 °F 58% 29.73 in 10.0 mi NW 17.3 mph 23.0 mph N/A   Mostly Cloudy
3:35 PM 84.2 °F 86.6 °F 66.2 °F 55% 29.73 in 10.0 mi NW 17.3 mph 26.5 mph N/A   Scattered Clouds
3:55 PM 84.2 °F 85.6 °F 64.4 °F 51% 29.72 in 10.0 mi NW 19.6 mph 25.3 mph N/A   Partly Cloudy
4:15 PM 82.4 °F 83.9 °F 64.4 °F 54% 29.73 in 10.0 mi NW 18.4 mph 24.2 mph N/A   Clear
4:35 PM 82.4 °F 83.4 °F 62.6 °F 51% 29.73 in 10.0 mi NW 15.0 mph 25.3 mph N/A   Clear
4:55 PM 82.4 °F 83.4 °F 62.6 °F 51% 29.73 in 10.0 mi NW 17.3 mph 27.6 mph N/A   Clear
5:15 PM 82.4 °F 83.4 °F 62.6 °F 51% 29.74 in 10.0 mi NW 20.7 mph 27.6 mph N/A   Clear
5:35 PM 82.4 °F 83.4 °F 62.6 °F 51% 29.75 in 10.0 mi NW 19.6 mph 24.2 mph N/A   Partly Cloudy
5:55 PM 80.6 °F 81.5 °F 60.8 °F 51% 29.74 in 10.0 mi NNW 18.4 mph 23.0 mph N/A   Partly Cloudy
6:15 PM 80.6 °F 81.5 °F 60.8 °F 51% 29.74 in 10.0 mi NW 18.4 mph 27.6 mph N/A   Partly Cloudy
6:35 PM 78.8 °F - 60.8 °F 54% 29.75 in 10.0 mi NW 19.6 mph 25.3 mph N/A   Clear
6:55 PM 78.8 °F - 60.8 °F 54% 29.76 in 10.0 mi NNW 19.6 mph 24.2 mph N/A   Clear
7:15 PM 78.8 °F - 59.0 °F 51% 29.78 in 10.0 mi NW 18.4 mph 21.9 mph N/A   Clear
7:35 PM 77.0 °F - 57.2 °F 50% 29.79 in 10.0 mi NNW 15.0 mph 21.9 mph N/A   Clear
7:55 PM 75.2 °F - 57.2 °F 53% 29.80 in 10.0 mi NW 12.7 mph 18.4 mph N/A   Clear
8:15 PM 75.2 °F - 57.2 °F 53% 29.80 in 10.0 mi NNW 12.7 mph - N/A   Partly Cloudy
8:35 PM 73.4 °F - 57.2 °F 57% 29.81 in 10.0 mi NNW 11.5 mph - N/A   Clear
8:55 PM 71.6 °F - 57.2 °F 60% 29.81 in 10.0 mi NW 9.2 mph - N/A   Clear
9:15 PM 71.6 °F - 57.2 °F 60% 29.82 in 10.0 mi NNW 10.4 mph - N/A   Clear
9:35 PM 69.8 °F - 55.4 °F 60% 29.83 in 10.0 mi NNW 8.1 mph - N/A   Clear
9:55 PM 69.8 °F - 55.4 °F 60% 29.84 in 10.0 mi NNW 9.2 mph - N/A   Clear
10:15 PM 68.0 °F - 55.4 °F 64% 29.85 in 10.0 mi NNW 10.4 mph - N/A   Clear
10:35 PM 66.2 °F - 55.4 °F 68% 29.86 in 10.0 mi NNW 11.5 mph - N/A   Clear
10:55 PM 66.2 °F - 55.4 °F 68% 29.86 in 10.0 mi NNW 11.5 mph - N/A   Clear
11:15 PM 66.2 °F - 53.6 °F 64% 29.87 in 10.0 mi NNW 9.2 mph - N/A   Clear
11:35 PM 66.2 °F - 53.6 °F 64% 29.88 in 10.0 mi NNW 9.2 mph - N/A   Clear
11:55 PM 64.4 °F - 53.6 °F 68% 29.89 in 10.0 mi NNW 6.9 mph - N/A   Clear